Terug naar catalogus

NIMBUS 2 DEB

ActiefLEO
NORAD 28977·DEBRIS·🇺🇸 United States

Gelanceerd May 15, 1966 vanaf Vandenberg Space Force Base

Loading…

Volgende Passages (komende 24 uur)

TLE

VersSource: Space-Track

Epoch: Sep 13, 2026, 21:07 UTC

1 28977U 66040AN  26256.88012714  .00001194  00000-0  18317-2 0  9998
2 28977 100.4634 224.2783 0044766 203.7248 183.9590 13.53696356 24776

Volg NIMBUS 2 DEB in realtime met AllMySat

Download on the App Store